Regional Weather Roundup
Issued by NWS Charleston, SC

Current Version | Previous Version | Graphics & Text | Print | Product List | Glossary On
Versions: 1 2 3 4 5 6 7 8 9 10 11 12 13 14 15 16 17 18 19 20 21 22 23 24 25 26 27 28 29 30 31 32 33 34 35 36 37 38 39 40 41 42 43 44 45 46 47 48 49 50
000
ASUS42 KCHS 031612
RWRCHS

REGIONAL WEATHER ROUNDUP
NATIONAL WEATHER SERVICE CHARLESTON SC
1100 AM EST SAT DEC 03 2016

NOTE: "FAIR" INDICATES FEW OR NO CLOUDS BELOW 12,000 FEET WITH NO
SIGNIFICANT WEATHER AND/OR OBSTRUCTIONS TO VISIBILITY.

NOT ALL STATIONS ARE QUALITY CONTROLLED. USE DATA WITH CAUTION...
ESPECIALLY DEWPOINT OBSERVATIONS.

SCZ027-030-031-034>040-042>050-031700-
...SOUTHEAST SOUTH CAROLINA...

CITY           SKY/WX    TMP DP  RH WIND       PRES   REMARKS
N CHARLESTON   PTSUNNY   52  34  50 NE10      30.29S
WATERFRONT PRK   N/A     52  41  66 NE12      30.29R
MOUNT PLEASANT NOT AVBL
JOHNS ISLAND   FAIR      54  36  50 NE12      30.29S
PINOPOLIS        N/A     48  37  66 E10       30.23R
MONCKS CORNER  FAIR      50  32  50 NE8       30.30S
SUMMERVILLE    FAIR      50  36  57 NE6       30.31S
BEAUFORT MCAS  MOSUNNY   57  37  47 NE8       30.28F
BEAUFORT ARPT  FAIR      55  39  54 NE14      30.28S
HILTON HEAD IS PTSUNNY   61  37  41 N13       30.27F
WALTERBORO     CLOUDY    52  36  54 NE8       30.29F
ALLENDALE      FAIR      50  34  53 VRB6G13   30.28F

...SOUTHERN MIDLANDS AND PEE DEE...

CITY           SKY/WX    TMP DP  RH WIND       PRES   REMARKS
GEORGETOWN     NOT AVBL
KINGSTREE      FAIR      48  32  53 NE7       30.31F
ORANGEBURG     CLOUDY    49  34  56 E8        30.31S
BARNWELL       NOT AVBL
AIKEN          FAIR      48  32  53 NE10      30.32F
MANNING        NOT AVBL
COLUMBIA       CLOUDY    51  32  48 VRB5      30.30F
SUMTER         PTSUNNY   50  32  50 E7        30.28F
FLORENCE       SUNNY     50  32  50 NE9       30.30F
MYRTLE BEACH   MOSUNNY   52  34  50 NE10      30.32S
N MYRTLE BEACH SUNNY     49  33  54 N10       30.30R

$$

GAZ063-065-086>088-099>101-113>116-118-119-134>141-150-031700-
...SOUTHEAST GEORGIA...

CITY           SKY/WX    TMP DP  RH WIND       PRES   REMARKS
SAVANNAH ARPT  CLOUDY    56  35  45 E9        30.29R
HUNTER AAF     CLOUDY    60  42  52 NE7       30.25R
FORT STEWART   MOSUNNY   60  34  37 E8        30.25R
STATESBORO     MOSUNNY   59  37  44 E9        30.27S
SYLVANIA       MOSUNNY  N/A N/A N/A E8        30.28F
CLAXTON        FAIR      59  37  43 NE7       30.27S

...CSRA...CENTRAL AND FAR SOUTHEAST GEORGIA...

CITY           SKY/WX    TMP DP  RH WIND       PRES   REMARKS
THOMSON        CLOUDY    54  38  55 E7        30.32S
AUGUSTA-BUSH   CLOUDY    54  34  46 E10       30.28F
AUGUSTA-DANIEL CLOUDY    52  31  44 E12       30.28F
SWAINSBORO     FAIR      55  32  41 E8        30.27F
VIDALIA        CLOUDY    59  41  51 NE8       30.26F
EASTMAN        FAIR      60  14  16 E7        30.29F
HAZLEHURST     FAIR      61  33  34 NE9       30.24F
ALMA           MOSUNNY   59  35  40 VRB7      30.26S
WAYCROSS       CLOUDY    60  39  45 NE6       30.26R
JESUP          FAIR      57  43  58 E6        30.26F
BAXLEY         FAIR      59  37  44 NE8       30.26S
BRUNSWICK      CLOUDY    57  46  67 N5        30.27R
SAINT SIMONS   CLOUDY    60  46  59 N13G25    30.25S

$$

SCZ027-028-034-036>038-045-046-048>050-GAZ119-141-031700-
...LAKE AND SUPPLEMENTAL COASTAL OBSERVATIONS...

STATION/POSITION TIME  TEMP    WIND        PRES    WAVE   SWELL
                       AIR SEA DIR/SP/G            HT/PER HT/PER/DIR
                 (UTC) (F)     (DEG/KT/KT) (MB)    (FT/S) (FT/S/D)
WINYAH BAY       NOT AVBL
LAKE MURRAY      1520   47      50/  3/  8 1025.7R
ACE BASIN NERRS  1445   52      40/  4     1025.0
FORT PULASKI     1548   56 62   60/ 11/ 15 1025.2R
SAPELO ISLAND    1500   56      20/  6     1025.0

$$

ANZ835-935-AMZ111-154-330-350-352-354-370-450-454-472-031700-
...C-MAN AND BUOY OBSERVATIONS...

STATION/POSITION TIME  TEMP    WIND        PRES    WAVE   SWELL
                       AIR SEA DIR/SP/G            HT/PER HT/PER/DIR
                 (UTC) (F)     (DEG/KT/KT) (MB)    (FT/S) (FT/S/D)
BUOY 41004       1550   58 75   30/ 17/ 21 1024.0R   4/ 5   2/140/ 9
BUOY 41008       1550   61 65   50/ 12/ 14 1024.1R   2/ 9   2/150/ 9
FOLLY BEACH CMAN 1500   53      20/ 16/ 20 1025.8R
CAPERS NEARSHORE 1508   53 62   40/ 17/ 23 1024.8R
FRIPP NEARSHORE  1508   55 63   40/ 14/ 17 1024.9R


STATION/POSITION TIME  TEMP    WIND        PRES    WAVE   SWELL
                       AIR SEA DIR/SP/G            HT/PER HT/PER/DIR
                 (UTC) (F)     (DEG/KT/KT) (MB)    (FT/S) (FT/S/D)
5E ST. MARYS GA  1600      66                N/A     3/ 5
FRYING PAN BUOY  1550   52 74   20/ 16/ 19 1024.8R   5/ 6   2/140/ 8
BUOY 41025       1550   65 74  350/ 19/ 25 1023.1S   5/ 6   2/160/13
CAPE LOOKOUT NC  1500   46     340/ 12/ 15 1024.2R
BUOY 41002       1550   65 74  350/ 14/ 16 1020.6F   5/ 6   2/130/ 8
BUOY 41010       NOT AVBL
ST AUGUSTINE FL  1600   65 66   20/ 16/ 17 1023.7F


$$



USA.gov is the U.S. government's official web portal to all federal, state and local government web resources and services.